Date String (YYYY-MM-DD hh:mm:ss) UTC,Instrument flags,absolute air pressure of the measurement (hPa),sample flow rate (lpm),inlet stack bypass flow (lpm),air temperature of the measurement (°C),ambient temperature measured by the external sensor (°C),aerosol sample conditioner tube jacket temperature (°C),OPC LED temperature (°C),internal box temperature (°C),relative humidity of the measurement (%),span deviation,mass concentration of particles derived from Lorenz-Mie calculation of OPC scattering (μg/m³),mass concentration of particles derived from Lorenz-Mie calculation of OPC scattering (μg/m³),mass concentration of particles derived from Lorenz-Mie calculation of OPC scattering (μg/m³)
DateTimeUTC,F1_M11,P_M11,Q1_M11,Q2_M11,T1_M11,T2_M11,T3_M11,T4_M11,T5_M11,U1_M11,ZSPAN_M11,X0_M11,X2_M11,X1_M11
2023-06-26 16:00:00,SystemResetWarning,0830.9,5.00,000.00,029.7,028.2,000.0,038.2,031.2,30.3,0002.0,0019.29,0006.56,0005.21
2023-06-26 16:01:00,SystemResetWarning,0830.9,5.00,000.00,029.7,028.1,000.0,038.2,031.3,30.9,0002.2,0019.60,0006.53,0005.22
2023-06-26 16:02:00,SystemResetWarning,0830.9,4.98,000.00,029.7,026.5,000.0,038.1,031.3,31.6,0002.3,0019.62,0006.47,0005.21
2023-06-26 16:03:00,SystemResetWarning,0830.9,5.01,000.00,029.7,024.9,000.0,038.1,031.2,31.5,0002.3,0019.38,0006.47,0005.22
2023-06-26 16:04:00,SystemResetWarning,0830.9,5.01,000.00,029.7,024.8,000.0,038.0,031.1,31.9,0002.4,0019.96,0006.40,0005.22
2023-06-26 16:05:00,SystemResetWarning,0830.9,5.00,000.00,029.5,025.1,000.0,038.0,030.7,32.2,0002.7,0020.06,0006.35,0005.21
2023-06-26 16:06:00,SystemResetWarning,0830.9,5.00,000.00,029.5,025.6,000.0,038.0,030.7,32.4,0002.9,0020.33,0006.32,0005.21
2023-06-26 16:07:00,SystemResetWarning,0830.9,5.00,000.00,029.4,026.0,000.0,038.0,030.7,32.3,0002.7,0020.21,0006.32,0005.21
2023-06-26 16:08:00,SystemResetWarning,0830.9,5.00,000.00,029.4,026.4,000.0,038.0,030.8,32.6,0002.5,0020.13,0006.33,0005.19
2023-06-26 16:09:00,SystemResetWarning,0830.8,5.00,000.00,029.4,026.8,000.0,038.0,030.8,32.1,0002.6,0018.95,0006.34,0005.19
2023-06-26 16:10:00,SystemResetWarning,0830.8,5.00,000.00,029.4,027.1,000.0,038.0,030.9,32.2,0002.5,0019.11,0006.33,0005.19
2023-06-26 16:11:00,SystemResetWarning,0830.9,5.00,000.00,029.5,027.3,000.0,038.0,030.9,32.0,0002.2,0018.80,0006.34,0005.21
2023-06-26 16:12:00,SystemResetWarning,0830.9,5.00,000.00,029.5,027.5,000.0,038.0,031.0,32.6,0002.3,0018.95,0006.38,0005.23
2023-06-26 16:13:00,SystemResetWarning,0831.0,4.99,000.00,029.5,027.7,000.0,038.0,031.0,32.5,0002.4,0020.11,0006.44,0005.24
2023-06-26 16:14:00,SystemResetWarning,0831.1,4.99,000.00,029.5,027.8,000.0,038.0,031.1,32.0,0002.2,0020.04,0006.47,0005.26
2023-06-26 16:15:00,SystemResetWarning,0831.0,4.99,000.00,029.5,028.0,000.0,038.1,031.1,31.4,0002.1,0019.92,0006.49,0005.27
2023-06-26 16:16:00,SystemResetWarning,0830.9,5.02,000.00,029.6,028.1,000.0,038.1,031.2,31.1,0002.1,0019.33,0006.47,0005.27
2023-06-26 16:17:00,SystemResetWarning,0830.8,5.01,000.00,029.6,028.2,000.0,038.1,031.2,31.3,0001.8,0019.09,0006.44,0005.26
2023-06-26 16:18:00,SystemResetWarning,0830.8,4.99,000.00,029.6,027.5,000.0,038.1,031.3,30.9,0002.0,0018.23,0006.37,0005.26
2023-06-26 16:19:00,SystemResetWarning,0830.8,4.99,000.00,029.6,025.5,000.0,038.0,031.3,30.8,0001.8,0017.90,0006.35,0005.27
2023-06-26 16:20:00,SystemResetWarning,0830.9,5.01,000.00,029.6,024.6,000.0,037.9,031.2,31.1,0002.1,0017.58,0006.35,0005.27
2023-06-26 16:21:00,SystemResetWarning,0830.9,5.00,000.00,029.5,024.8,000.0,037.9,030.9,31.7,0001.8,0017.14,0006.37,0005.27
2023-06-26 16:22:00,SystemResetWarning,0830.9,5.00,000.00,029.4,025.2,000.0,037.9,030.7,32.0,0001.9,0016.59,0006.32,0005.25
2023-06-26 16:23:00,SystemResetWarning,0830.8,5.00,000.00,029.4,025.7,000.0,037.9,030.7,30.6,0000.2,0016.45,0006.30,0005.23
2023-06-26 16:24:00,SystemResetWarning,0830.7,5.00,000.00,029.4,026.1,000.0,037.9,030.7,30.8,0001.2,0015.73,0006.23,0005.21
2023-06-26 16:25:00,SystemResetWarning,0830.7,4.99,000.00,029.3,026.5,000.0,037.9,030.7,31.7,0001.5,0015.15,0006.19,0005.19
2023-06-26 16:26:00,SystemResetWarning,0830.6,5.00,000.00,029.4,026.9,000.0,037.9,030.8,31.6,0000.4,0014.43,0006.15,0005.17
2023-06-26 16:27:00,SystemResetWarning,0830.7,5.01,000.00,029.4,027.2,000.0,037.9,030.8,31.4,0001.8,0014.00,0006.20,0005.16
2023-06-26 16:28:00,SystemResetWarning,0830.8,5.00,000.00,029.4,027.4,000.0,037.9,030.9,32.4,0002.1,0013.91,0006.21,0005.16
2023-06-26 16:29:00,SystemResetWarning,0830.7,5.00,000.00,029.4,027.6,000.0,038.0,031.0,30.8,0002.0,0014.09,0006.27,0005.16
2023-06-26 16:30:00,SystemResetWarning,0830.7,5.00,000.00,029.4,027.8,000.0,038.0,031.0,31.4,0002.4,0014.91,0006.29,0005.16
2023-06-26 16:31:00,SystemResetWarning,0830.7,5.00,000.00,029.5,027.9,000.0,038.0,031.0,32.1,0002.2,0014.80,0006.27,0005.15
2023-06-26 16:32:00,SystemResetWarning,0830.7,5.00,000.00,029.5,028.0,000.0,038.0,031.1,31.6,0002.2,0014.01,0006.25,0005.13
2023-06-26 16:33:00,SystemResetWarning,0830.7,5.00,000.00,029.5,028.1,000.0,038.0,031.1,31.7,0002.4,0013.94,0006.27,0005.12
2023-06-26 16:34:00,SystemResetWarning,0830.6,4.99,000.00,029.6,027.5,000.0,038.0,031.2,31.5,0003.1,0014.01,0006.24,0005.12
2023-06-26 16:35:00,SystemResetWarning,0830.5,4.99,000.00,029.6,025.6,000.0,037.9,031.2,31.8,0003.4,0013.17,0006.21,0005.09
2023-06-26 16:36:00,SystemResetWarning,0830.6,5.00,000.00,029.5,024.7,000.0,037.9,031.1,32.0,0003.9,0013.08,0006.23,0005.08
2023-06-26 16:37:00,SystemResetWarning,0830.6,5.01,000.00,029.5,024.9,000.0,037.9,030.9,33.0,0003.7,0013.15,0006.26,0005.09
2023-06-26 16:38:00,SystemResetWarning,0830.6,5.01,000.00,029.4,025.3,000.0,037.9,030.7,32.9,0002.0,0013.06,0006.24,0005.10
2023-06-26 16:39:00,SystemResetWarning,0830.6,5.00,000.00,029.3,025.8,000.0,037.9,030.7,32.8,0003.6,0013.14,0006.21,0005.11
2023-06-26 16:40:00,SystemResetWarning,0830.6,5.00,000.00,029.3,026.2,000.0,037.9,030.7,33.1,0003.7,0013.57,0006.21,0005.11
2023-06-26 16:41:00,SystemResetWarning,0830.6,5.00,000.00,029.3,026.6,000.0,037.9,030.8,33.3,0002.3,0013.39,0006.22,0005.11
2023-06-26 16:42:00,SystemResetWarning,0830.6,5.00,000.00,029.3,026.9,000.0,037.9,030.8,32.9,0000.0,0013.91,0006.21,0005.12
2023-06-26 16:43:00,SystemResetWarning,0830.5,5.00,000.00,029.4,027.2,000.0,037.9,030.9,33.4,0000.0,0014.29,0006.23,0005.15
2023-06-26 16:44:00,SystemResetWarning,0830.5,5.00,000.00,029.4,027.4,000.0,037.9,030.9,33.4,0000.0,0015.29,0006.24,0005.17
2023-06-26 16:45:00,SystemResetWarning,0830.4,4.99,000.00,029.4,027.6,000.0,037.9,030.9,33.7,0000.6,0015.59,0006.29,0005.20
2023-06-26 16:46:00,SystemResetWarning,0830.6,4.99,000.00,029.4,027.8,000.0,037.9,031.0,33.6,0000.0,0015.18,0006.37,0005.24
2023-06-26 16:47:00,SystemResetWarning,0830.6,5.00,000.00,029.5,027.9,000.0,038.0,031.0,33.6,0000.0,0015.35,0006.39,0005.26
2023-06-26 16:48:00,SystemResetWarning,0830.6,5.01,000.00,029.5,027.9,000.0,038.0,031.1,33.5,0000.0,0016.24,0006.45,0005.29
2023-06-26 16:49:00,SystemResetWarning,0830.6,4.98,000.00,029.5,026.2,000.0,037.9,031.2,33.4,0000.0,0016.57,0006.47,0005.29
2023-06-26 16:50:00,SystemResetWarning,0830.6,5.01,000.00,029.5,024.8,000.0,037.8,031.0,33.3,0000.0,0016.71,0006.48,0005.30
2023-06-26 16:51:00,SystemResetWarning,0830.5,5.01,000.00,029.4,024.7,000.0,037.8,030.9,33.6,0000.0,0017.94,0006.51,0005.29
2023-06-26 16:52:00,SystemResetWarning,0830.4,5.00,000.00,029.3,025.1,000.0,037.8,030.6,34.0,0000.8,0018.64,0006.50,0005.31
2023-06-26 16:53:00,SystemResetWarning,0830.4,5.00,000.00,029.3,025.5,000.0,037.8,030.6,33.6,0001.4,0018.24,0006.56,0005.32
2023-06-26 16:54:00,SystemResetWarning,0830.4,5.00,000.00,029.3,026.0,000.0,037.8,030.6,34.1,0001.1,0018.04,0006.59,0005.33
2023-06-26 16:55:00,SystemResetWarning,0830.4,4.98,000.00,029.3,026.4,000.0,037.8,030.7,35.1,0001.1,0016.77,0006.54,0005.32
2023-06-26 16:56:00,SystemResetWarning,0830.4,5.04,000.00,029.4,026.8,000.0,037.8,030.8,33.7,0001.2,0016.44,0006.61,0005.32
2023-06-26 16:57:00,SystemResetWarning,0830.6,4.97,000.00,029.5,027.1,000.0,037.8,030.9,34.1,0001.5,0016.39,0006.55,0005.30
2023-06-26 16:58:00,SystemResetWarning,0830.4,5.03,000.00,029.6,027.3,000.0,037.9,030.9,33.9,0002.0,0015.94,0006.54,0005.30
2023-06-26 16:59:00,SystemResetWarning,0830.4,4.99,000.00,029.7,027.5,000.0,037.9,031.0,33.9,0002.0,0015.49,0006.49,0005.28
